Torna al catalogo

NIMBUS 2 DEB

AttivoLEO
NORAD 28201·DEBRIS·🇺🇸 United States

Lanciato May 15, 1966 da Vandenberg Space Force Base

Loading…

Prossimi Passaggi (prossime 24 ore)

TLE

AggiornatoSource: Space-Track

Epoca: Sep 14, 2026, 07:24 UTC

1 28201U 66040P   26257.30856589  .00001874  00000-0  24445-2 0  9996
2 28201 100.2595 185.8529 0056336 102.7168  48.5123 13.62589844663359

Traccia NIMBUS 2 DEB in tempo reale con AllMySat

Download on the App Store